IZ5MMH-4 Weather Reports


time (UTC)temp
C
wind
direction
speed
KPH
gust
KPH
rain 1hr
cm
rain 24hr
cm
rain mn
cm
humidity
%
barometer
mb
20260507125437 22 0.0 0.0 0.00 0.00 0.00 44 1015.9
20260507124437 22 0.0 0.0 0.00 0.00 0.00 43 1015.9
20260507123437 22 0.0 0.0 0.00 0.00 0.00 45 1016.0
20260507122437 22 0.0 0.0 0.00 0.00 0.00 43 1016.0
20260507121437 23 0.0 0.0 0.00 0.00 0.00 42 1016.0
20260507120438 22 0.0 0.0 0.00 0.00 0.00 48 1016.0
20260507114438 22 0.0 0.0 0.00 0.00 0.00 48 1015.9
20260507113438 22 0.0 0.0 0.00 0.00 0.00 50 1016.0
20260507112438 21 0.0 0.0 0.00 0.00 0.00 50 1016.2
20260507111438 21 0.0 0.0 0.00 0.00 0.00 53 1016.3
20260507110438 21 0.0 0.0 0.00 0.00 0.00 54 1016.3
20260507105438 21 0.0 0.0 0.00 0.00 0.00 50 1016.4
20260507104437 20 0.0 0.0 0.00 0.00 0.00 53 1016.4
20260507103437 20 0.0 0.0 0.00 0.00 0.00 57 1016.4
20260507102438 20 0.0 0.0 0.00 0.00 0.00 55 1016.4
20260507101438 20 0.0 0.0 0.00 0.00 0.00 61 1016.5
20260507100438 20 0.0 0.0 0.00 0.00 0.00 51 1016.6
20260507095437 20 0.0 0.0 0.00 0.00 0.00 54 1016.6
20260507094438 20 0.0 0.0 0.00 0.00 0.00 61 1016.5
20260507093438 19 0.0 0.0 0.00 0.00 0.00 58 1016.4
20260507092437 20 0.0 0.0 0.00 0.00 0.00 57 1016.3
20260507091437 19 0.0 0.0 0.00 0.00 0.00 56 1016.2
20260507090437 19 0.0 0.0 0.00 0.00 0.00 57 1016.3
20260507085438 18 0.0 0.0 0.00 0.00 0.00 59 1016.3
20260507084437 18 0.0 0.0 0.00 0.00 0.00 61 1016.4
20260507083437 18 0.0 0.0 0.00 0.00 0.00 63 1016.4
20260507082437 18 0.0 0.0 0.00 0.00 0.00 67 1016.4
20260507081437 18 0.0 0.0 0.00 0.00 0.00 71 1016.2
20260507080437 17 0.0 0.0 0.00 0.00 0.00 75 1016.3
20260507075437 17 0.0 0.0 0.00 0.00 0.00 76 1016.3
20260507074438 17 0.0 0.0 0.00 0.00 0.00 80 1016.4
20260507073437 17 0.0 0.0 0.00 0.00 0.00 81 1016.4
20260507072438 17 0.0 0.0 0.00 0.00 0.00 82 1016.4
20260507071437 17 0.0 0.0 0.00 0.00 0.00 83 1016.3
20260507070438 17 0.0 0.0 0.00 0.00 0.00 86 1016.3
20260507065438 17 0.0 0.0 0.00 0.00 0.00 88 1016.2
20260507064438 17 0.0 0.0 0.00 0.00 0.00 90 1016.2
20260507063438 16 0.0 0.0 0.00 0.00 0.00 90 1016.1
20260507062437 16 0.0 0.0 0.00 0.00 0.00 90 1016.1
20260507061438 16 0.0 0.0 0.00 0.00 0.00 90 1015.8
20260507060437 16 0.0 0.0 0.00 0.00 0.00 90 1015.9
20260507055437 16 0.0 0.0 0.00 0.00 0.00 91 1015.8
20260507054437 16 0.0 0.0 0.00 0.00 0.00 90 1015.7
20260507053437 16 0.0 0.0 0.00 0.00 0.00 90 1015.7
20260507052437 15 0.0 0.0 0.00 0.00 0.00 89 1015.6
20260507051437 15 0.0 0.0 0.00 0.00 0.00 89 1015.6
20260507050438 15 0.0 0.0 0.00 0.00 0.00 88 1015.4
20260507045438 15 0.0 0.0 0.00 0.00 0.00 88 1015.3
20260507044437 15 0.0 0.0 0.00 0.00 0.00 88 1015.3
20260507043437 15 0.0 0.0 0.00 0.00 0.00 88 1015.2
20260507042438 15 0.0 0.0 0.00 0.00 0.00 87 1015.1
20260507041438 15 0.0 0.0 0.00 0.00 0.00 87 1015.1
20260507040437 15 0.0 0.0 0.00 0.00 0.00 87 1015.0
20260507035437 15 0.0 0.0 0.00 0.00 0.00 86 1015.1
20260507034437 15 0.0 0.0 0.00 0.00 0.00 86 1015.0
20260507033437 15 0.0 0.0 0.00 0.00 0.00 87 1015.1
20260507032437 15 0.0 0.0 0.00 0.00 0.00 87 1015.1
20260507031437 15 0.0 0.0 0.00 0.00 0.00 87 1015.2
20260507030437 15 0.0 0.0 0.00 0.00 0.00 87 1015.1
20260507025438 15 0.0 0.0 0.00 0.00 0.00 87 1015.1
20260507024438 15 0.0 0.0 0.00 0.00 0.00 87 1015.1
20260507023437 15 0.0 0.0 0.00 0.00 0.00 86 1015.1
20260507022438 16 0.0 0.0 0.00 0.00 0.00 86 1015.1
20260507021437 16 0.0 0.0 0.00 0.00 0.00 87 1015.1
20260507020437 16 0.0 0.0 0.00 0.00 0.00 87 1015.0
20260507015437 16 0.0 0.0 0.00 0.00 0.00 87 1015.0
20260507014438 16 0.0 0.0 0.00 0.00 0.00 87 1014.9
20260507013438 16 0.0 0.0 0.00 0.00 0.00 87 1014.9
20260507012437 16 0.0 0.0 0.00 0.00 0.00 87 1014.9
20260507011438 16 0.0 0.0 0.00 0.00 0.00 86 1014.9
20260507010437 16 0.0 0.0 0.00 0.00 0.00 86 1014.9
20260507005438 16 0.0 0.0 0.00 0.00 0.00 87 1014.9
20260507004438 16 0.0 0.0 0.00 0.00 0.00 86 1014.9
20260507003437 16 0.0 0.0 0.00 0.00 0.00 86 1015.1
20260507002439 16 0.0 0.0 0.00 0.00 0.00 86 1014.9
20260507001437 16 0.0 0.0 0.00 0.00 0.00 86 1014.9
20260507000438 16 0.0 0.0 0.00 0.00 0.00 86 1014.9
20260506235438 16 0.0 0.0 0.00 0.00 0.00 84 1014.8
20260506234438 16 0.0 0.0 0.00 0.00 0.00 85 1014.8
20260506233437 16 0.0 0.0 0.00 0.00 0.00 85 1014.9
20260506232437 17 0.0 0.0 0.00 0.00 0.00 85 1014.9
20260506231438 17 0.0 0.0 0.00 0.00 0.00 83 1014.9
20260506230437 17 0.0 0.0 0.00 0.00 0.00 82 1014.8
20260506225438 17 0.0 0.0 0.00 0.00 0.00 82 1014.9
20260506224437 17 0.0 0.0 0.00 0.00 0.00 81 1015.1
20260506223437 18 0.0 0.0 0.00 0.00 0.00 75 1015.1
20260506222437 18 0.0 0.0 0.00 0.00 0.00 76 1015.0
20260506221437 18 0.0 0.0 0.00 0.00 0.00 76 1014.9
20260506220437 18 0.0 0.0 0.00 0.00 0.00 78 1014.8
20260506215437 18 0.0 0.0 0.00 0.00 0.00 81 1015.0
20260506214438 18 0.0 0.0 0.00 0.00 0.00 94 1014.9
20260506213437 18 0.0 0.0 0.00 0.00 0.00 95 1014.7
20260506212438 18 0.0 0.0 0.00 0.00 0.00 95 1014.8
20260506211438 18 0.0 0.0 0.00 0.00 0.00 95 1014.6
20260506210438 18 0.0 0.0 0.00 0.00 0.00 95 1014.6
20260506205437 18 0.0 0.0 0.00 0.00 0.00 94 1014.5
20260506204438 18 0.0 0.0 0.00 0.00 0.00 94 1014.5
20260506203437 19 0.0 0.0 0.00 0.00 0.00 94 1014.4
20260506202437 19 0.0 0.0 0.00 0.00 0.00 95 1014.4
20260506201438 19 0.0 0.0 0.00 0.00 0.00 95 1014.3
20260506200437 19 0.0 0.0 0.00 0.00 0.00 95 1014.2
20260506194437 19 0.0 0.0 0.00 0.00 0.00 94 1013.9
20260506193438 19 0.0 0.0 0.00 0.00 0.00 94 1013.8
20260506192438 19 0.0 0.0 0.00 0.00 0.00 93 1013.6
20260506191437 19 0.0 0.0 0.00 0.00 0.00 92 1013.4
20260506190437 19 0.0 0.0 0.00 0.00 0.00 92 1013.4
20260506185438 19 0.0 0.0 0.00 0.00 0.00 92 1013.2
20260506184438 19 0.0 0.0 0.00 0.00 0.00 91 1013.1
20260506183438 20 0.0 0.0 0.00 0.00 0.00 91 1013.0
20260506182437 20 0.0 0.0 0.00 0.00 0.00 92 1012.9
20260506181437 20 0.0 0.0 0.00 0.00 0.00 91 1013.0
20260506180437 20 0.0 0.0 0.00 0.00 0.00 91 1012.8
20260506175438 20 0.0 0.0 0.00 0.00 0.00 90 1012.8
20260506174437 20 0.0 0.0 0.00 0.00 0.00 90 1012.6
20260506173437 20 0.0 0.0 0.00 0.00 0.00 89 1012.6
20260506172438 20 0.0 0.0 0.00 0.00 0.00 89 1012.7
20260506171438 20 0.0 0.0 0.00 0.00 0.00 87 1012.7
20260506170437 20 0.0 0.0 0.00 0.00 0.00 86 1012.6
20260506165437 20 0.0 0.0 0.00 0.00 0.00 85 1012.6
20260506164438 20 0.0 0.0 0.00 0.00 0.00 84 1012.7
20260506163438 20 0.0 0.0 0.00 0.00 0.00 83 1012.6
20260506162438 21 0.0 0.0 0.00 0.00 0.00 82 1012.8
20260506161437 21 0.0 0.0 0.00 0.00 0.00 82 1012.9
20260506160437 21 0.0 0.0 0.00 0.00 0.00 81 1012.9
20260506155438 21 0.0 0.0 0.00 0.00 0.00 79 1013.0
20260506154437 22 0.0 0.0 0.00 0.00 0.00 76 1012.8
20260506153437 22 0.0 0.0 0.00 0.00 0.00 76 1012.9
20260506152437 22 0.0 0.0 0.00 0.00 0.00 77 1012.7
20260506151438 22 0.0 0.0 0.00 0.00 0.00 78 1012.7
20260506150437 22 0.0 0.0 0.00 0.00 0.00 79 1012.7
20260506145437 21 0.0 0.0 0.00 0.00 0.00 81 1012.9
20260506144438 21 0.0 0.0 0.00 0.00 0.00 83 1012.8
20260506143437 21 0.0 0.0 0.00 0.00 0.00 85 1012.8
20260506142438 21 0.0 0.0 0.00 0.00 0.00 83 1012.8
20260506141437 20 0.0 0.0 0.00 0.00 0.00 85 1012.8
20260506140437 21 0.0 0.0 0.00 0.00 0.00 82 1012.9
20260506135437 21 0.0 0.0 0.00 0.00 0.00 84 1012.9
20260506134437 21 0.0 0.0 0.00 0.00 0.00 85 1012.8
20260506133438 21 0.0 0.0 0.00 0.00 0.00 85 1013.0
20260506132438 21 0.0 0.0 0.00 0.00 0.00 87 1013.0
20260506131438 20 0.0 0.0 0.00 0.00 0.00 88 1013.1
20260506130438 20 0.0 0.0 0.00 0.00 0.00 88 1013.2